Time,TemperatureF,DewpointF,PressureIn,WindDirection,WindDirectionDegrees,WindSpeedMPH,WindSpeedGustMPH,Humidity,HourlyPrecipIn,Conditions,Clouds,dailyrainin,SoftwareType,DateUTC
2013-06-28 00:01:00,71.0,63.0,29.71,WNW,300,0.0,1.0,76,0.00,,,0.00,,2013-06-28 05:01:00,
2013-06-28 00:11:00,70.0,63.0,29.71,West,278,0.0,2.0,78,0.00,,,0.00,,2013-06-28 05:11:00,
2013-06-28 00:22:00,70.0,63.0,29.71,West,278,0.0,2.0,78,0.00,,,0.00,,2013-06-28 05:22:00,
2013-06-28 00:33:00,70.0,63.0,29.72,WNW,284,0.0,1.0,79,0.00,,,0.00,,2013-06-28 05:33:00,
2013-06-28 00:43:00,69.0,63.0,29.71,WNW,285,0.0,0.0,80,0.00,,,0.00,,2013-06-28 05:43:00,
2013-06-28 00:53:00,69.0,63.0,29.71,WNW,285,0.0,0.0,80,0.00,,,0.00,,2013-06-28 05:53:00,
2013-06-28 01:02:00,69.0,63.0,29.71,WNW,294,0.0,2.0,80,0.00,,,0.00,,2013-06-28 06:02:00,
2013-06-28 01:12:00,69.0,63.0,29.71,NNE,16,0.0,3.0,81,0.00,,,0.00,,2013-06-28 06:12:00,
2013-06-28 01:22:00,69.0,63.0,29.71,NNE,16,0.0,3.0,81,0.00,,,0.00,,2013-06-28 06:22:00,
2013-06-28 01:33:00,68.0,62.0,29.70,North,349,0.0,1.0,81,0.00,,,0.00,,2013-06-28 06:33:00,
2013-06-28 01:42:00,68.0,62.0,29.70,North,349,0.0,2.0,82,0.00,,,0.00,,2013-06-28 06:42:00,
2013-06-28 01:52:00,68.0,62.0,29.70,North,349,0.0,2.0,82,0.00,,,0.00,,2013-06-28 06:52:00,
2013-06-28 02:01:00,68.0,63.0,29.70,NNE,27,0.0,0.0,83,0.00,,,0.00,,2013-06-28 07:01:00,
2013-06-28 02:11:00,67.0,62.0,29.69,NNE,27,0.0,0.0,84,0.00,,,0.00,,2013-06-28 07:11:00,
2013-06-28 02:22:00,67.0,62.0,29.69,NNE,27,0.0,0.0,84,0.00,,,0.00,,2013-06-28 07:22:00,
2013-06-28 02:33:00,67.0,62.0,29.68,NNE,27,0.0,0.0,85,0.00,,,0.00,,2013-06-28 07:33:00,
2013-06-28 02:43:00,66.0,61.0,29.68,NNE,27,0.0,1.0,85,0.00,,,0.00,,2013-06-28 07:43:00,
2013-06-28 02:52:00,66.0,61.0,29.68,NNE,27,0.0,1.0,85,0.00,,,0.00,,2013-06-28 07:52:00,
2013-06-28 03:01:00,66.0,62.0,29.68,NNE,27,0.0,0.0,86,0.00,,,0.00,,2013-06-28 08:01:00,
2013-06-28 03:11:00,65.0,61.0,29.68,NNE,27,0.0,0.0,88,0.00,,,0.00,,2013-06-28 08:11:00,
2013-06-28 03:22:00,65.0,61.0,29.68,NNE,27,0.0,0.0,88,0.00,,,0.00,,2013-06-28 08:22:00,
2013-06-28 03:33:00,65.0,61.0,29.68,NNE,27,0.0,2.0,87,0.00,,,0.00,,2013-06-28 08:33:00,
2013-06-28 03:43:00,65.0,61.0,29.68,NNE,27,0.0,3.0,87,0.00,,,0.00,,2013-06-28 08:43:00,
2013-06-28 03:52:00,65.0,61.0,29.68,NNE,27,0.0,3.0,87,0.00,,,0.00,,2013-06-28 08:52:00,
2013-06-28 04:02:00,65.0,61.0,29.67,NNE,27,0.0,1.0,86,0.00,,,0.00,,2013-06-28 09:02:00,
2013-06-28 04:11:00,65.0,61.0,29.67,NNE,27,0.0,1.0,86,0.00,,,0.00,,2013-06-28 09:11:00,
2013-06-28 04:22:00,65.0,61.0,29.67,NNE,27,0.0,1.0,86,0.00,,,0.00,,2013-06-28 09:22:00,
2013-06-28 04:33:00,65.0,61.0,29.67,NNE,27,0.0,0.0,87,0.00,,,0.00,,2013-06-28 09:33:00,
2013-06-28 04:42:00,64.0,60.0,29.67,NNE,27,0.0,1.0,87,0.00,,,0.00,,2013-06-28 09:42:00,
2013-06-28 04:52:00,64.0,60.0,29.67,NNE,27,0.0,1.0,87,0.00,,,0.00,,2013-06-28 09:52:00,
2013-06-28 05:02:00,64.0,60.0,29.67,NNE,27,0.0,1.0,87,0.00,,,0.00,,2013-06-28 10:02:00,
2013-06-28 05:12:00,64.0,60.0,29.67,NNE,27,0.0,2.0,87,0.00,,,0.00,,2013-06-28 10:12:00,
2013-06-28 05:33:00,64.0,60.0,29.67,NNE,27,0.0,1.0,88,0.00,,,0.00,,2013-06-28 10:33:00,
2013-06-28 05:42:00,64.0,60.0,29.67,NNE,27,0.0,1.0,88,0.00,,,0.00,,2013-06-28 10:42:00,
2013-06-28 05:52:00,64.0,60.0,29.67,NNE,27,0.0,1.0,88,0.00,,,0.00,,2013-06-28 10:52:00,
2013-06-28 06:02:00,63.0,60.0,29.67,NNE,27,0.0,0.0,90,0.00,,,0.00,,2013-06-28 11:02:00,
2013-06-28 06:11:00,63.0,60.0,29.67,NNE,27,0.0,0.0,90,0.00,,,0.00,,2013-06-28 11:11:00,
2013-06-28 06:22:00,63.0,60.0,29.67,NNE,27,0.0,0.0,90,0.00,,,0.00,,2013-06-28 11:22:00,
2013-06-28 06:34:00,64.0,61.0,29.68,NNE,27,0.0,0.0,90,0.00,,,0.00,,2013-06-28 11:34:00,
2013-06-28 06:43:00,64.0,61.0,29.68,NNE,27,0.0,1.0,89,0.00,,,0.00,,2013-06-28 11:43:00,
2013-06-28 06:53:00,64.0,61.0,29.68,NNE,27,0.0,1.0,89,0.00,,,0.00,,2013-06-28 11:53:00,
2013-06-28 07:02:00,66.0,62.0,29.68,SW,227,0.0,2.0,87,0.00,,,0.00,,2013-06-28 12:02:00,
2013-06-28 07:12:00,68.0,62.0,29.68,WNW,286,0.0,3.0,82,0.00,,,0.00,,2013-06-28 12:12:00,
2013-06-28 07:22:00,68.0,62.0,29.68,WNW,286,0.0,3.0,82,0.00,,,0.00,,2013-06-28 12:22:00,
2013-06-28 07:34:00,70.0,64.0,29.69,NW,321,0.0,4.0,81,0.00,,,0.00,,2013-06-28 12:34:00,
2013-06-28 07:43:00,70.0,64.0,29.69,WSW,253,1.0,6.0,80,0.00,,,0.00,,2013-06-28 12:43:00,
2013-06-28 07:52:00,70.0,64.0,29.69,WSW,253,1.0,6.0,80,0.00,,,0.00,,2013-06-28 12:52:00,
2013-06-28 08:01:00,71.0,64.0,29.69,NNW,335,0.0,8.0,79,0.00,,,0.00,,2013-06-28 13:01:00,
2013-06-28 08:11:00,73.0,65.0,29.68,NE,44,0.0,4.0,77,0.00,,,0.00,,2013-06-28 13:11:00,
2013-06-28 08:23:00,73.0,65.0,29.68,NE,44,0.0,4.0,77,0.00,,,0.00,,2013-06-28 13:23:00,
2013-06-28 08:33:00,73.0,64.0,29.67,NNW,345,2.0,5.0,74,0.00,,,0.00,,2013-06-28 13:33:00,
2013-06-28 08:43:00,74.0,64.0,29.67,NNE,21,2.0,7.0,72,0.00,,,0.00,,2013-06-28 13:43:00,
2013-06-28 08:53:00,74.0,64.0,29.67,NNE,21,2.0,7.0,72,0.00,,,0.00,,2013-06-28 13:53:00,
2013-06-28 09:02:00,75.0,65.0,29.67,NNW,339,4.0,8.0,72,0.00,,,0.00,,2013-06-28 14:02:00,
2013-06-28 09:12:00,75.0,65.0,29.67,West,270,2.0,11.0,70,0.00,,,0.00,,2013-06-28 14:12:00,
2013-06-28 09:33:00,75.0,65.0,29.67,North,355,5.0,10.0,70,0.00,,,0.00,,2013-06-28 14:33:00,
2013-06-28 09:44:00,76.0,65.0,29.67,NNW,333,4.0,7.0,68,0.00,,,0.00,,2013-06-28 14:44:00,
2013-06-28 09:53:00,76.0,65.0,29.67,NNW,333,4.0,7.0,68,0.00,,,0.00,,2013-06-28 14:53:00,
2013-06-28 10:02:00,76.0,64.0,29.67,NNE,15,4.0,10.0,67,0.00,,,0.00,,2013-06-28 15:02:00,
2013-06-28 10:11:00,77.0,65.0,29.66,NNE,13,5.0,11.0,67,0.00,,,0.00,,2013-06-28 15:11:00,
2013-06-28 10:24:00,77.0,65.0,29.66,NNE,13,5.0,11.0,67,0.00,,,0.00,,2013-06-28 15:24:00,
2013-06-28 10:34:00,77.0,65.0,29.66,WNW,302,6.0,11.0,66,0.00,,,0.00,,2013-06-28 15:34:00,
2013-06-28 10:43:00,77.0,63.0,29.66,NE,48,5.0,11.0,63,0.00,,,0.00,,2013-06-28 15:43:00,
2013-06-28 10:52:00,77.0,63.0,29.66,NE,48,5.0,11.0,63,0.00,,,0.00,,2013-06-28 15:52:00,
2013-06-28 11:01:00,78.0,65.0,29.66,North,351,6.0,12.0,65,0.00,,,0.00,,2013-06-28 16:01:00,
2013-06-28 11:11:00,78.0,66.0,29.66,WNW,301,3.0,15.0,66,0.00,,,0.00,,2013-06-28 16:11:00,
2013-06-28 11:24:00,78.0,66.0,29.66,WNW,301,3.0,15.0,66,0.00,,,0.00,,2013-06-28 16:24:00,
2013-06-28 11:33:00,78.0,63.0,29.66,NNE,13,6.0,12.0,61,0.00,,,0.00,,2013-06-28 16:33:00,
2013-06-28 11:44:00,79.0,64.0,29.66,NW,319,3.0,12.0,60,0.00,,,0.00,,2013-06-28 16:44:00,
2013-06-28 11:53:00,79.0,64.0,29.66,NW,319,3.0,12.0,60,0.00,,,0.00,,2013-06-28 16:53:00,
2013-06-28 12:02:00,79.0,64.0,29.66,NNW,342,5.0,15.0,60,0.00,,,0.00,,2013-06-28 17:02:00,
2013-06-28 12:11:00,79.0,64.0,29.65,North,355,2.0,9.0,61,0.00,,,0.00,,2013-06-28 17:11:00,
2013-06-28 12:22:00,79.0,64.0,29.65,North,355,2.0,9.0,61,0.00,,,0.00,,2013-06-28 17:22:00,
2013-06-28 12:33:00,79.0,65.0,29.65,NNE,15,3.0,11.0,62,0.00,,,0.00,,2013-06-28 17:33:00,
2013-06-28 12:44:00,80.0,63.0,29.65,NNE,15,6.0,13.0,56,0.00,,,0.00,,2013-06-28 17:44:00,
2013-06-28 12:52:00,80.0,63.0,29.65,NNE,15,6.0,13.0,56,0.00,,,0.00,,2013-06-28 17:52:00,
2013-06-28 13:02:00,79.0,62.0,29.65,NNE,13,7.0,13.0,57,0.00,,,0.00,,2013-06-28 18:02:00,
2013-06-28 13:11:00,80.0,63.0,29.64,NW,311,4.0,13.0,56,0.00,,,0.00,,2013-06-28 18:11:00,
2013-06-28 13:22:00,80.0,63.0,29.64,NW,311,4.0,13.0,56,0.00,,,0.00,,2013-06-28 18:22:00,
2013-06-28 13:33:00,80.0,62.0,29.64,NNE,33,5.0,17.0,55,0.00,,,0.00,,2013-06-28 18:33:00,
2013-06-28 13:43:00,79.0,60.0,29.64,NNE,19,4.0,13.0,53,0.00,,,0.00,,2013-06-28 18:43:00,
2013-06-28 13:52:00,79.0,60.0,29.64,NNE,19,4.0,13.0,53,0.00,,,0.00,,2013-06-28 18:52:00,
2013-06-28 14:01:00,81.0,62.0,29.64,NNE,15,5.0,12.0,52,0.00,,,0.00,,2013-06-28 19:01:00,
2013-06-28 14:11:00,80.0,62.0,29.63,West,276,3.0,13.0,55,0.00,,,0.00,,2013-06-28 19:11:00,
2013-06-28 14:22:00,80.0,62.0,29.63,West,276,3.0,13.0,55,0.00,,,0.00,,2013-06-28 19:22:00,
2013-06-28 14:33:00,81.0,62.0,29.63,NNW,333,2.0,9.0,53,0.00,,,0.00,,2013-06-28 19:33:00,
2013-06-28 14:43:00,80.0,61.0,29.62,West,259,5.0,13.0,53,0.00,,,0.00,,2013-06-28 19:43:00,
2013-06-28 14:53:00,80.0,61.0,29.62,West,259,5.0,13.0,53,0.00,,,0.00,,2013-06-28 19:53:00,
2013-06-28 15:02:00,81.0,61.0,29.61,NNE,17,2.0,16.0,50,0.00,,,0.00,,2013-06-28 20:02:00,
2013-06-28 15:11:00,79.0,60.0,29.61,North,355,2.0,13.0,53,0.00,,,0.00,,2013-06-28 20:11:00,
2013-06-28 15:22:00,79.0,60.0,29.61,North,355,2.0,13.0,53,0.00,,,0.00,,2013-06-28 20:22:00,
2013-06-28 15:33:00,79.0,62.0,29.60,NNE,21,5.0,10.0,56,0.00,,,0.00,,2013-06-28 20:33:00,
2013-06-28 15:43:00,78.0,62.0,29.60,NNE,24,1.0,11.0,57,0.00,,,0.00,,2013-06-28 20:43:00,
2013-06-28 15:52:00,78.0,62.0,29.60,NNE,24,1.0,11.0,57,0.00,,,0.00,,2013-06-28 20:52:00,
2013-06-28 16:02:00,80.0,62.0,29.59,NE,40,4.0,11.0,55,0.00,,,0.00,,2013-06-28 21:02:00,
2013-06-28 16:11:00,79.0,61.0,29.59,NNE,30,4.0,11.0,54,0.00,,,0.00,,2013-06-28 21:11:00,
2013-06-28 16:23:00,79.0,61.0,29.59,NNE,30,4.0,11.0,54,0.00,,,0.00,,2013-06-28 21:23:00,
2013-06-28 16:34:00,78.0,61.0,29.59,NE,54,3.0,9.0,55,0.00,,,0.00,,2013-06-28 21:34:00,
2013-06-28 16:53:00,77.0,62.0,29.60,North,350,2.0,15.0,59,0.00,,,0.00,,2013-06-28 21:53:00,
2013-06-28 17:01:00,77.0,63.0,29.59,North,10,1.0,5.0,62,0.00,,,0.00,,2013-06-28 22:01:00,
2013-06-28 17:11:00,76.0,64.0,29.60,NNW,330,5.0,10.0,66,0.00,,,0.00,,2013-06-28 22:11:00,
2013-06-28 17:22:00,76.0,64.0,29.60,NNW,330,5.0,10.0,66,0.00,,,0.00,,2013-06-28 22:22:00,
2013-06-28 17:34:00,75.0,64.0,29.59,North,11,2.0,6.0,69,0.00,,,0.00,,2013-06-28 22:34:00,
2013-06-28 17:43:00,76.0,65.0,29.59,North,11,9.0,15.0,68,0.00,,,0.00,,2013-06-28 22:43:00,
2013-06-28 17:52:00,76.0,65.0,29.59,North,11,9.0,15.0,68,0.00,,,0.00,,2013-06-28 22:52:00,
2013-06-28 18:02:00,74.0,63.0,29.59,NNE,27,6.0,9.0,69,0.00,,,0.00,,2013-06-28 23:02:00,
2013-06-28 18:11:00,76.0,63.0,29.59,NE,38,5.0,9.0,65,0.00,,,0.00,,2013-06-28 23:11:00,
2013-06-28 18:23:00,76.0,63.0,29.59,NE,38,5.0,9.0,65,0.00,,,0.00,,2013-06-28 23:23:00,
2013-06-28 18:34:00,76.0,64.0,29.59,NNE,30,2.0,9.0,67,0.00,,,0.00,,2013-06-28 23:34:00,
2013-06-28 18:43:00,76.0,64.0,29.59,NNE,15,3.0,9.0,67,0.00,,,0.00,,2013-06-28 23:43:00,
2013-06-28 18:53:00,76.0,64.0,29.59,NNE,15,3.0,9.0,67,0.00,,,0.00,,2013-06-28 23:53:00,
2013-06-28 19:02:00,76.0,64.0,29.59,NNE,32,5.0,10.0,66,0.00,,,0.00,,2013-06-29 00:02:00,
2013-06-28 19:11:00,76.0,63.0,29.60,North,360,3.0,11.0,64,0.00,,,0.00,,2013-06-29 00:11:00,
2013-06-28 19:23:00,76.0,63.0,29.60,North,360,3.0,11.0,64,0.00,,,0.00,,2013-06-29 00:23:00,
2013-06-28 19:33:00,75.0,62.0,29.60,North,355,5.0,13.0,64,0.00,,,0.00,,2013-06-29 00:33:00,
2013-06-28 19:42:00,75.0,62.0,29.60,North,355,5.0,13.0,64,0.00,,,0.00,,2013-06-29 00:42:00,
2013-06-28 19:52:00,75.0,62.0,29.60,North,355,5.0,13.0,64,0.00,,,0.00,,2013-06-29 00:52:00,
2013-06-28 20:01:00,75.0,62.0,29.60,North,355,5.0,13.0,64,0.00,,,0.00,,2013-06-29 01:01:00,
2013-06-28 20:11:00,75.0,62.0,29.60,North,355,5.0,13.0,64,0.00,,,0.00,,2013-06-29 01:11:00,
2013-06-28 20:52:00,75.0,63.0,29.59,NNW,333,4.0,10.0,66,0.00,,,0.00,,2013-06-29 01:52:00,
2013-06-28 21:01:00,75.0,63.0,29.59,NNW,333,4.0,10.0,66,0.00,,,0.00,,2013-06-29 02:01:00,
2013-06-28 21:11:00,75.0,63.0,29.59,NNW,333,4.0,10.0,66,0.00,,,0.00,,2013-06-29 02:11:00,
2013-06-28 21:21:00,75.0,63.0,29.59,NNW,333,4.0,10.0,66,0.00,,,0.00,,2013-06-29 02:21:00,
2013-06-28 21:31:00,75.0,63.0,29.59,NNW,333,4.0,10.0,66,0.00,,,0.00,,2013-06-29 02:31:00,